Regional Weather Roundup
Issued by NWS Upton, NY

Current Version | Previous Version | Text Only | Print | Product List | Glossary On
Versions: 1 2 3 4 5 6 7 8 9 10 11 12 13 14 15 16 17 18 19 20 21 22 23 24 25 26 27 28 29
000 ASUS41 KOKX 221105 RWROKX REGIONAL WEATHER ROUNDUP NATIONAL WEATHER SERVICE NEW YORK NY 700 AM EDT WED OCT 22 2014 NOTE: "FAIR" INDICATES FEW OR NO CLOUDS BELOW 12,000 FEET WITH NO SIGNIFICANT WEATHER AND/OR OBSTRUCTIONS TO VISIBILITY. NYZ071-072-176-178-NJZ106-104-221200- NEW YORK CITY METRO AREA CITY SKY/WX TMP DP RH WIND PRES REMARKS CENTRAL PARK LGT RAIN 55 52 89 NE8 29.94R FOG LAGUARDIA APRT LGT RAIN 56 52 86 N12 29.91R KENNEDY INTL LGT RAIN 57 53 86 N12 29.90R NEWARK/LIBERTY LGT RAIN 55 54 96 N16 29.91R BRNX BOT. GARD N/A 54 52 94 N5 29.93S TETERBORO RAIN 56 52 86 N8 29.91R $$ NYZ177-179-078>081-221200- LONG ISLAND NEW YORK CITY SKY/WX TMP DP RH WIND PRES REMARKS FARMINGDALE LGT RAIN 57 53 86 NE16G25 29.89R ISLIP CLOUDY 57 53 86 NE18 29.87R SHIRLEY CLOUDY 57 53 86 N13G21 29.89S WESTHAMPTON CLOUDY 57 53 86 NE18G24 29.89S MONTAUK POINT N/A 56 53 90 NE14G23 29.91F $$ NYZ052-065-067-221200- HUDSON VALLEY CITY SKY/WX TMP DP RH WIND PRES REMARKS WHITE PLAINS CLOUDY 53 50 89 NE9 29.92R NEWBURGH CLOUDY 50 50 100 NE12 29.97 MONTGOMERY LGT RAIN 51 48 89 NE20G26 29.96R POUGHKEEPSIE CLOUDY 52 48 86 N12G17 29.97R ALBANY CLOUDY 50 45 83 N12 30.05R $$ NJZ001-105-106-008-010-013-015-019>022-104-221200- NEW JERSEY CITY SKY/WX TMP DP RH WIND PRES REMARKS NEWARK/LIBERTY LGT RAIN 55 54 96 N16 29.91R TETERBORO RAIN 56 52 86 N8 29.91R CALDWELL RAIN 54 50 86 NE8 29.93R FOG MORRISTOWN LGT RAIN 55 54 94 NE10G21 29.92R SOMERVILLE LGT RAIN 56 51 84 N9 29.88R SUSSEX LGT RAIN 53 49 86 NE8 29.95R ANDOVER N/A 51 50 96 VRB6 29.94R TRENTON RAIN 55 52 89 NE10 29.86S MILLVILLE CLOUDY 56 53 90 N8 29.82R ATLANTIC CITY MOCLDY 53 52 96 NE9 29.81R WRIGHTSTOWN LGT RAIN 54 54 100 NE17 29.83R TOMS RIVER CLOUDY 54 52 94 NE6 29.86R BELMAR CLOUDY 54 48 82 N13 29.87R $$ PAZ047>061-062-071-221200- EASTERN PENNSYLVANIA CITY SKY/WX TMP DP RH WIND PRES REMARKS PHILADELPHIA CLOUDY 57 53 86 N9G21 29.86R ALLENTOWN LGT RAIN 54 50 86 NE10 29.91R SCRANTON LGT RAIN 51 48 89 NE6 29.96R $$ CTZ002-004>006-009-010-012-RIZ004-006-007-MAZ004-011-015-221200- SOUTHERN NEW ENGLAND IN CT CITY SKY/WX TMP DP RH WIND PRES REMARKS BRADLEY INTL CLOUDY 53 47 79 N13G23 29.97S HARTFORD CLOUDY 53 47 79 N16 29.97R DANBURY CLOUDY 53 32 44 NE8G18 29.95R WTRBRY/OXFORD CLOUDY 52 45 76 NE12G23 29.94R BRIDGEPORT CLOUDY 55 50 83 NE17G26 29.92S MERIDEN CLOUDY 53 48 83 N12G23 29.95R NEW HAVEN CLOUDY 55 50 83 N16 29.92S CHESTER CLOUDY 54 50 87 N7 29.94R GROTON MOCLDY 53 50 89 N16 29.91F WILLIMANTIC CLOUDY 53 48 83 N12 29.96S IN RI CITY SKY/WX TMP DP RH WIND PRES REMARKS PROVIDENCE DRIZZLE 52 50 93 N10 29.95F BLOCK ISLAND CLOUDY 54 50 87 NE18G25 29.90F WESTERLY CLOUDY 53 50 89 N10G20 29.92F IN MA CITY SKY/WX TMP DP RH WIND PRES REMARKS BOSTON LGT RAIN 56 54 93 NE16 29.99R FOG WORCESTER LGT RAIN 47 46 97 NE14 29.99S FOG WESTFIELD CLOUDY 52 46 80 N12 30.00R PROVINCETOWN CLOUDY 57 54 88 NE15G22 29.96S NANTUCKET CLOUDY 57 56 96 N18 29.88F $$ ANZ330-335-338-340-345-350-353-355-221200- COASTAL MARINE OBSERVATIONS STATION/POSITION TIME SKY/WX TEMP WIND PRES VSBY WAVE AIR SEA DIR/SP/G HT/PER (UTC) (F) (DEG/KT/KT) (MB) (MI) (FT/S) NY HARB ENTRANCE NOT AVBL 4S FIRE IS 1100 63 N/A 5/ 5 20S FIRE ISLAND 1100 62 64 50/ 23/ 29 1008.6 7/ 6 23SW MTP 1100 N/A 5/ 5 HUDSON CANYON 1100 67 66 100/ 19/ 23 1006.9 6/ 8 EXECUTION ROCKS 1100 57 63 20/ 17/ 23 N/A WESTERN LI SOUND 1100 57 40/ 17/ 23 N/A 3/ 4 CENTRAL LI SOUND 1100 56 64 50/ 17/ 21 N/A 3/ 3 EASTERN LI SOUND 1000 57 63 40/ 17/ 21 N/A ROBBINS REEF 1000 57 40/ 18/ 21 1011.1 $$ >>>>>>>>>>>>>>>>>>>>>>>>>>>> KEY <<<<<<<<<<<<<<<<<<<<<<<<<<< > < > SKY/WX - SKY CONDITION/PRESENT WEATHER < > TMP - TEMPERATURE IN FAHRENHEIT < > DP - DEWPOINT IN FAHRENHEIT < > RH - RELATIVE HUMIDITY IN PERCENT < > WIND - DIRECTION AND SPEED IN MPH < > PRES - MEAN SEA LEVEL PRESSURE IN INCHES OF HG < > WCI - WIND CHILL INDEX < > VSB - VISIBILITY IN MILES < > HX - HEAT INDEX < > TC - TEMPERATURE IN CELSIUS < > VRB - VARIABLE WIND DIRECTION < > < >>>>>>>>>>>>>>>>>>>>>>>>>>>> KEY <<<<<<<<<<<<<<<<<<<<<<<<<<<

USA.gov is the U.S. government's official web portal to all federal, state and local government web resources and services.